OBJECT C, 64050

Orbit data source: Space-Track

You're viewing an Uncataloged Satellite

Recently launched and/or uncataloged satellites may have evolving metadata. Metadata may include but not limited to: Owner, Maufacturer, Bus, Motor, and Mission.

OBJECT C, 64050 is a Chinese satellite in SSO that was launched on Sat, 17 May 2025 UTC via a ZHUQUE-2E launch vehicle from the Jiuquan Satellite Launch Center, China (JSC). Unknown objects in Earth's orbit typically refer to objects detected orbiting the Earth but have not yet been identified or cataloged. These objects could be anything from previously untracked satellites, spent rocket stages, debris from satellite collisions, or even natural meteoroids temporarily captured by Earth's gravity.

Loading next visibility...
Identifier
64050, 2025-103C
Orbit
SSO
Country
Flag of CNCN / PRC
Related business
Manufacturer
Changsha Tianyi
Mission
Operational Amateur Imaging
Bus & Motor
TY, Unknown motor
Mass
~50 kg wet, ~50 kg dry
Launch date (UTC)
2025-05-17 (1 year ago)
Launch vehicle
ZHUQUE-2E
Launch site
Jiuquan Satellite Launch Center, China (JSC)
Object type
Unknown
Shape & HBR
Box + 2 Pan, 1.3 m
Radar Cross Section
0.255 m², Large (>1 m²)

Expand to show TLE details & history
Last TLE update: 5 hours ago

TLE from 5 hours ago
0 OBJECT C
1 64050U 25103C   26150.19870385  .00005167  00000-0  24438-3 0  9994
2 64050  97.3758 222.2444 0002208 194.4562 165.6611 15.19803152 57338
Epoch: 2026-05-30T04:46Z
TLE epoch observation values (Epoch: 2026-05-30T04:46:08.012Z)
Latitude
0.00004°
Longitude
-97.00716°
Altitude
510.999 km
Speed
7.608 km/s
True Right ascension
14h 48m 58s
True Declination
0° 00' 00"
Sunlit
Object was in full shadow at epoch
Visualization orbit readout
Latitude
Unknown
Longitude
Unknown
Altitude
Unknown
Speed
Unknown
Apparent Right ascension
Unknown
Apparent Declination
Unknown
Sunlit
N/A
Visualization observer readout
Local Sidereal Time
19:46:33
Azimuth
Unknown
Elevation
Unknown
Doppler factor
Unknown
Orbital elements
Apogee altitude
504.919 km
Perigee altitude
501.88 km
Semi-major axis
6,881.537 km
Eccentricity
0.00022
Inclination
97.3758°
RAAN
222.2444°
Arg. of periapsis
194.4562°
True anomaly
165.66736°
Mean anomaly
165.6611°
Eccentric anomaly
165.66423°
Mean motion
3.80203 °/min
Orbital period
94.69 mins
BSTAR
0.00024438
Loading maneuver chart data...
Computing Atmospheric mass density...
Loading historical data...
Loading historical data...
Loading historical data...
Loading historical data...
Loading historical data...
Loading historical data...
Loading historical data...

Documentation

Showing up to 5 results
|